Ithaca, NY

12:21 PM EDT on May 26, 2018 (GMT -0400)
Tompkins County

Weather History for KITH - August, 2012

Change the Weather History Date:

Sunday, August 19, 2012

  Actual Average Record
Temperature  
Mean Temperature 60 °F -  
Max Temperature 75 °F 76 °F 91 °F (1936)
Min Temperature 46 °F 54 °F 41 °F (1963)
Degree Days  
Heating Degree Days 4    
Growing Degree Days 10 (Base 50)    
Moisture  
Dew Point 49 °F    
Average Humidity 71    
Maximum Humidity 100    
Minimum Humidity 36    
Precipitation  
Precipitation 0.00 in - - ()
Sea Level Pressure  
Sea Level Pressure 29.98 in    
Wind  
Wind Speed 4 mph (ESE)    
Max Wind Speed 7 mph    
Max Gust Speed -    
Visibility 10 miles    
Events      
Averages and records for this station are not official NWS values.
T = Trace of Precipitation, MM = Missing Value Source: NWS Daily Summary

Daily Weather History Graph

Daily Weather History Graph

Search for Another Location

Airport or City:

Astronomy

Aug. 19, 2012 Rise Set
Actual Time 6:17 AM EDT 8:00 PM EDT
Civil Twilight 5:47 AM EDT 8:30 PM EDT
Nautical Twilight 5:11 AM EDT 9:06 PM EDT
Astronomical Twilight 4:32 AM EDT 9:45 PM EDT
Moon 8:34 AM EDT (8/19) 8:43 PM EDT (8/19)
Length of Visible Light 14h 42m
Length of Day
13h 42m
Waxing Crescent, 5% of the Moon is Illuminated
Aug 19
Waxing Crescent
Aug 24
First Quarter
Aug 31
Full
Sep 8
Last Quarter
Sep 15
New

Hourly Weather History & Observations

Time (EDT) Temp. Windchill Dew Point Humidity Pressure Visibility Wind Dir Wind Speed Gust Speed Precip Events Conditions
12:56 AM 50.0 °F - 48.9 °F 96% 30.00 in 10.0 mi ENE 3.5 mph - N/A   Clear
1:56 AM 50.0 °F - 48.9 °F 96% 30.01 in 10.0 mi East 4.6 mph - N/A   Clear
2:56 AM 48.9 °F - 47.8 °F 96% 30.01 in 10.0 mi ENE 5.8 mph - N/A   Clear
3:56 AM 47.8 °F - 46.9 °F 97% 30.01 in 10.0 mi East 5.8 mph - N/A   Clear
4:56 AM 47.8 °F - 46.9 °F 97% 30.02 in 10.0 mi ENE 5.8 mph - N/A   Clear
5:56 AM 46.9 °F - 46.9 °F 100% 30.03 in 10.0 mi ENE 5.8 mph - N/A   Clear
6:22 AM 46.4 °F 43.5 °F 46.4 °F 100% 30.03 in 10.0 mi East 5.8 mph - N/A   Clear
6:56 AM 47.8 °F - 46.9 °F 97% 30.03 in 10.0 mi ENE 6.9 mph - N/A   Clear
7:56 AM 50.9 °F - 48.9 °F 93% 30.01 in 10.0 mi ENE 5.8 mph - N/A   Clear
8:56 AM 55.9 °F - 52.9 °F 89% 30.01 in 10.0 mi Calm Calm - N/A   Clear
9:56 AM 61.9 °F - 52.9 °F 72% 30.03 in 10.0 mi Calm Calm - N/A   Clear
10:56 AM 66.9 °F - 52.0 °F 59% 30.03 in 10.0 mi Calm Calm - N/A   Clear
11:56 AM 68.9 °F - 50.9 °F 53% 30.02 in 10.0 mi SSE 6.9 mph - N/A   Clear
12:56 PM 70.0 °F - 48.9 °F 47% 30.00 in 10.0 mi Calm Calm - N/A   Clear
1:56 PM 73.9 °F - 46.9 °F 38% 29.98 in 10.0 mi Calm Calm - N/A   Clear
2:56 PM 74.8 °F - 45.9 °F 36% 29.96 in 10.0 mi WSW 3.5 mph - N/A   Scattered Clouds
3:56 PM 74.8 °F - 45.9 °F 36% 29.94 in 10.0 mi South 6.9 mph - N/A   Scattered Clouds
4:56 PM 75.9 °F - 48.9 °F 38% 29.92 in 10.0 mi SSE 6.9 mph - N/A   Scattered Clouds
5:56 PM 74.8 °F - 48.9 °F 40% 29.92 in 10.0 mi South 4.6 mph - N/A   Scattered Clouds
6:56 PM 73.9 °F - 50.9 °F 44% 29.91 in 10.0 mi South 5.8 mph - N/A   Partly Cloudy
7:56 PM 66.9 °F - 54.0 °F 63% 29.92 in 10.0 mi SE 4.6 mph - N/A   Scattered Clouds
8:56 PM 64.9 °F - 52.0 °F 63% 29.93 in 10.0 mi SE 5.8 mph - N/A   Partly Cloudy
9:56 PM 61.9 °F - 52.9 °F 72% 29.94 in 10.0 mi South 6.9 mph - N/A   Partly Cloudy
10:56 PM 61.0 °F - 52.9 °F 75% 29.94 in 10.0 mi SSE 6.9 mph - N/A   Partly Cloudy
11:56 PM 61.0 °F - 52.0 °F 72% 29.94 in 10.0 mi ESE 4.6 mph - N/A   Clear